ZHONGXING-1D

Last updated on Thu Aug 13 2026 00:03:02 GMT+0000 (Coordinated Universal Time)

1 49505U 21114A 26224.63769414 .00000000 00000+0 00000+0 0 9996 2 49505 0.0155 244.1053 0001175 42.9198 33.8043 1.00266951 17382
UTC large
Height (km)
Speed (km/s)
/
Latitude / Longitude
Inclination (degrees)
Orbital Period (minutes)
Azimuth
Elevation
Range (km)
Doppler Factor

Next 0 passes for location: London (51.5072 / 0.1276)

No passes found over London.
ZHONGXING-1D